Regional Weather Roundup
Issued by NWS

Home | Current Version | Previous Version | Text Only | Print | Product List | Glossary On
Versions: 1 2 3 4 5 6 7 8 9 10 11 12 13 14 15 16 17 18 19 20 21 22 23 24 25 26 27 28 29 30 31 32 33 34 35 36 37 38 39 40 41 42 43 44 45 46 47 48 49 50
000
ASUS46 KSEW 231510
RWRWA

WASHINGTON REGIONAL WEATHER ROUNDUP
NATIONAL WEATHER SERVICE SEATTLE WA
800 AM PDT SAT AUG 23 2014

NOTE:"FAIR" INDICATES FEW OR NO CLOUDS BELOW 12,000 FEET WITH NO
SIGNIFICANT WEATHER AND/OR OBSTRUCTIONS TO VISIBILITY.

WAZ505-507>509-231600-
SEATTLE, TACOMA, EVERETT, AND VICINITY

CITY           SKY/WX    TMP DP  RH WIND       PRES   REMARKS
EVERETT        SUNNY     60  55  83 E6        30.16R
BOEING FIELD   SUNNY     62  55  77 SE5       30.15R
RENTON         SUNNY     59  56  89 SE3       30.15R
SEATAC AIRPORT MOSUNNY   59  54  83 S3        30.16R
JBLM-MCCHORD   SUNNY     56  54  92 CALM      30.15S
PUYALLUP       NOT AVBL
JBLM-FT LEWIS  SUNNY     56  53  89 S2        30.15S
TACOMA NARROWS MOSUNNY   57  55  93 CALM      30.15S
$$

WAZ001-503-506-510-514-515-231600-
NORTH INTERIOR

CITY           SKY/WX    TMP DP  RH WIND       PRES   REMARKS
BELLINGHAM     MOSUNNY   59  57  93 CALM      30.15R
FRIDAY HARBOR  FOG       51  51 100 CALM      30.16R VSB<1/4
EASTSOUND      SUNNY     57  54  88 MISG      30.13S
PORT ANGELES   SUNNY     56  52  86 CALM      30.15S
NAS WHIDBEY    FOG       54  52  93 CALM      30.16R VSB 3/4
BURLINGTON     SUNNY     55  55 100 CALM      30.16R
$$

WAZ020-022-039-040-504-511-512-231600-
SOUTHWEST INTERIOR

CITY           SKY/WX    TMP DP  RH WIND       PRES   REMARKS
SHELTON        SUNNY     52  51  97 W3        30.14R
OLYMPIA        SUNNY     52  51  97 CALM      30.16R
CHEHALIS       FOG       54  54 100 CALM      30.16R VSB<1/4
KELSO          SUNNY     57  52  82 CALM      30.18R
VANCOUVER      SUNNY     59  54  83 CALM      30.13R
SCAPPOOSE, OR  SUNNY     61  54  77 N3        30.12S
PORTLAND, OR   MOSUNNY   60  56  86 CALM      30.13R
$$

WAZ021-516-517-231600-
WASHINGTON COAST

CITY           SKY/WX    TMP DP  RH WIND       PRES   REMARKS
FORKS          FOG       49  49 100 CALM      30.15R VSB<1/4
HOQUIAM        FOG       55  55 100 E3        30.15S VSB 1/4
ASTORIA, OR    CLOUDY    58  55  90 CALM      30.14R
$$

WAZ019-023-024-040-518-519-231600-
CASCADE MOUNTAINS AND COLUMBIA GORGE

CITY           SKY/WX    TMP DP  RH WIND       PRES   REMARKS
STAMPEDE PASS  NOT AVBL
TROUTDALE, OR  SUNNY     60  54  80 CALM      30.12R
THE DALLES, OR SUNNY     63  53  70 NW5       30.12S
$$

WAZ026-027-041>044-520-521-231600-
EAST SLOPES

CITY           SKY/WX    TMP DP  RH WIND       PRES   REMARKS
OMAK           SUNNY     61  51  70 NW5       30.17R
WENATCHEE      SUNNY     61  50  67 NW8       30.16R
ELLENSBURG     SUNNY     59  51  75 CALM      30.16R
YAKIMA         MOSUNNY   61  51  70 W5        30.15R
$$

WAZ028-034-035-231600-
COLUMBIA BASIN

CITY           SKY/WX    TMP DP  RH WIND       PRES   REMARKS
EPHRATA        SUNNY     67  50  54 N10       30.13R
MOSES LAKE     SUNNY     65  51  60 N7        30.14R
PASCO          SUNNY     62  53  72 N5        30.11R
HERMISTON, OR  SUNNY     64  52  64 W7        30.11R
$$

WAZ036>038-231600-
NORTHEAST WASHINGTON

CITY           SKY/WX    TMP DP  RH WIND       PRES   REMARKS
SPOKANE GEIGER MOSUNNY   59  43  55 N8        30.13S
SPOKANE FELTS  SUNNY     60  45  57 CALM      30.13S
FAIRCHILD AFB  SUNNY     61  42  49 N12       30.14R
COEURDALENE,ID SUNNY     59  45  58 NE10      30.14S
DEER PARK      SUNNY     61  44  53 N6        30.15R
$$

WAZ029>033-231600-
SOUTHEAST WASHINGTON

CITY           SKY/WX    TMP DP  RH WIND       PRES   REMARKS
PULLMAN        PTSUNNY   58  52  80 CALM      30.13R
LEWISTON, ID   CLOUDY    60  58  92 CALM      30.10R
WALLA WALLA    SUNNY     61  50  67 S6        30.12R
PENDLETON, OR  SUNNY     59  48  67 S5        30.12R
$$



USA.gov is the U.S. government's official web portal to all federal, state and local government web resources and services.